Showing default

ESSA 8 (TOS-F), 3615

Orbit data source: Space-Track

ESSA 8 (TOS-F), 3615 is a payload satellite owned by ESSA (US) in SSO that was launched on Sun, 15 Dec 1968 UTC via a THOR DELTA N launch vehicle from the Air Force Western Test Range (AFWTR). Payload-class satellites include a variety of spacecraft equipped with specific instruments for various scientific and technological missions. These include communications satellites like Starlink; space stations such as the ISS; scientific satellites like the Hubble; Earth observation satellites from companies like Planet Labs, Umbra, and HawkEye 360; GPS; miniature CubeSats for education and research; and military/defense satellites.

Loading next visibility...
Identifier
3615, 1968-114A
Orbit
SSO
Country
Flag of USUS
Related business
Manufacturer
RCA/East Windsor
Mission
Non-operational spacecraft
Bus & Motor
TIROS I, Unknown motor
Mass
131 kg wet, 131 kg dry
Launch date (UTC)
1968-12-15 (57 years ago)
Launch vehicle
THOR DELTA N
Launch site
Air Force Western Test Range (AFWTR)
Object type
Payload
Rocket body
Debris
Shape & HBR
Unknown
Radar Cross Section
Medium (>0.1 m² and <1 m²)

Expand to show TLE details & history
Last TLE update: 1 day ago

TLE from 1 day ago
0 ESSA 8 (TOS-F)
1 03615U 68114A   25301.47845572 -.00000012  00000-0  19862-3 0  9991
2 03615 101.6671 248.2483 0032255  53.0461 307.3560 12.56245493607464
Epoch: 2025-10-28T11:28Z
TLE epoch observation values (Epoch: 2025-10-28T11:28:58.574Z)
Latitude
0.00003°
Longitude
38.93887°
Altitude
1,425.815 km
Speed
7.155 km/s
True Right ascension
16h 32m 59s
True Declination
0° 00' 00"
Sunlit
Object was in daylight at epoch
Visualization orbit readout
Latitude
Unknown
Longitude
Unknown
Altitude
Unknown
Speed
Unknown
Apparent Right ascension
Unknown
Apparent Declination
Unknown
Sunlit
N/A
Visualization observer readout
Local Sidereal Time
10:00:33
Azimuth
Unknown
Elevation
Unknown
Doppler factor
Unknown
Orbital elements
Apogee altitude
1,461.218 km
Perigee altitude
1,410.809 km
Semi-major axis
7,814.151 km
Eccentricity
0.00323
Inclination
101.6671°
RAAN
248.2483°
Arg. of periapsis
53.0461°
True anomaly
307.06148°
Mean anomaly
307.356°
Eccentric anomaly
307.20881°
Mean motion
3.1421 °/min
Orbital period
114.57 mins
BSTAR
0.00019862
Loading maneuver chart data...
Computing Atmospheric mass density...
Loading historical data...
Loading historical data...
Loading historical data...
Loading historical data...
Loading historical data...
Loading historical data...
Loading historical data...

Documentation

Showing up to 5 results
|